Overview Statistics Trail Chart Weather Telemetry Raw packets
 

This is the latest recevied weather packets stored in our database for station/object N6GPM. If no packets are shown the sender has not sent any weather packets the latest 10 day(s).

<< 58 59 60 61 62 63 64 >>
Time Temp. Humidity Pressure Rain* Wind** Luminosity Snow
1788280389 23.33° C 45% 1019.7 hPa 0 mm - 614 W/m² -
1788280084 23.89° C 45% 1019.6 hPa 0 mm - 595 W/m² -
1788279783 23.89° C 44% 1019.7 hPa 0 mm - 578 W/m² -
1788279482 23.33° C 47% 1019.8 hPa 0 mm - 559 W/m² -
1788279176 22.78° C 47% 1019.8 hPa 0 mm - 540 W/m² -
1788278873 22.78° C 47% 1019.6 hPa 0 mm - 520 W/m² -
1788278569 22.22° C 50% 1019.7 hPa 0 mm - 500 W/m² -
1788278268 22.78° C 51% 1019.6 hPa 0 mm - 480 W/m² -
1788277963 23.33° C 49% 1019.8 hPa 0 mm - 459 W/m² -
1788277658 22.78° C 50% 1019.8 hPa 0 mm - 432 W/m² -
1788277352 22.22° C 49% 1019.5 hPa 0 mm - 412 W/m² -
1788277047 22.22° C 53% 1019.8 hPa 0 mm - 220 W/m² -
1788276746 21.67° C 56% 1019.6 hPa 0 mm - 369 W/m² -
1788276441 21.67° C 59% 1019.4 hPa 0 mm - 348 W/m² -
1788276140 21.67° C 60% 1019.7 hPa 0 mm - 327 W/m² -
1788275836 21.11° C 61% 1019.6 hPa 0 mm - 305 W/m² -
1788275535 20.56° C 63% 1019.8 hPa 0 mm - 283 W/m² -
1788275235 20.56° C 63% 1019.6 hPa 0 mm - 263 W/m² -
1788274933 20.56° C 64% 1019.5 hPa 0 mm - 243 W/m² -
1788274631 20.56° C 66% 1019.4 hPa 0 mm - 221 W/m² -
1788274326 20° C 68% 1019.7 hPa 0 mm - 201 W/m² -
1788274021 20° C 68% 1019.6 hPa 0 mm - 183 W/m² -
1788273716 19.44° C 71% 1019.5 hPa 0 mm - 164 W/m² -
1788273411 18.89° C 73% 1019.6 hPa 0 mm - 147 W/m² -
1788273108 18.89° C 72% 1019.3 hPa 0 mm - 129 W/m² -

* Rain latest hour (hover to see other rain measurements)
** Current wind speed in m/s (hover to see current wind gust speed)